Regional Weather Roundup
Issued by NWS

Home | Current Version | Previous Version | Graphics & Text | Print | Product List | Glossary On
Versions: 1 2 3 4 5 6 7 8 9 10 11 12 13 14 15 16 17 18 19 20 21 22 23 24 25 26 27 28 29 30 31 32 33 34 35 36 37 38 39 40 41 42 43 44 45 46 47 48 49 50
000
ASUS43 KLSX 240459
RWRMO

WEATHER SUMMARY FOR MISSOURI
NATIONAL WEATHER SERVICE SPRINGFIELD MO
1200 AM CDT THU JUL 24 2014

NOTE: "FAIR" INDICATES FEW OR NO CLOUDS BELOW 12,000 FEET WITH NO
       SIGNIFICANT WEATHER AND/OR OBSTRUCTIONS TO VISIBILITY.
       CURRENT SKY AND/OR WEATHER CONDITIONS ARE NOT AVAILABLE FOR
       CHILLICOTHE AND FARMINGTON.

MOZ001>031-035>038-043-044-053-054-240600-
...NORTHERN AND WESTERN MISSOURI...

CITY           SKY/WX    TMP DP  RH WIND       PRES   REMARKS
KANSAS CTY INT CLEAR     73  62  68 E8        30.15R
KANSAS C DTWN  CLEAR     74  62  66 NE7       30.13S
LEE`S SUMMIT   CLEAR     73  63  70 E7        30.15R
ST JOSEPH      CLEAR     72  62  71 E6        30.15R
CHILLICOTHE      N/A     70  59  68 NE3       30.16S
KIRKSVILLE     CLEAR     63  57  81 NE3       30.16F

$$
MOZ066>068-077>081-088>096-101>105-240600-
...SOUTHWEST MISSOURI...

CITY           SKY/WX    TMP DP  RH WIND       PRES   REMARKS
SPRINGFIELD    CLEAR     74  67  78 NE8       30.09S
JOPLIN         CLEAR     71  67  87 N6        30.09S

$$
MOZ032>034-039>042-045>050-055>058-069>072-240600-
...CENTRAL MISSOURI...

CITY           SKY/WX    TMP DP  RH WIND       PRES   REMARKS
COLUMBIA       CLEAR     67  60  78 NE7       30.14R
JEFFERSON CITY CLEAR     72  60  66 E5        30.12R
ROLLA          PTCLDY    69  62  78 NE9       30.11S
SEDALIA        CLEAR     71  63  75 NE6       30.14R
OSAGE BEACH    CLEAR     72  63  73 NE6       30.11S

$$
MOZ051-052-059>065-240600-
...EAST CENTRAL MISSOURI...

CITY           SKY/WX    TMP DP  RH WIND       PRES   REMARKS
ST LOUIS INTL  CLEAR     71  58  63 NE8       30.12S
SPIRIT OF STL  CLEAR     67  60  78 E5        30.11R
ST CHARLES     CLEAR     66  59  78 NE7       30.12R

$$
MOZ072>076-082>087-097>100-106>115-240600-
...SOUTH CENTRAL AND SOUTHEAST MISSOURI...

CITY           SKY/WX    TMP DP  RH WIND       PRES   REMARKS
CAPE GIRARDEAU CLEAR     72  64  76 N15       30.06R
FARMINGTON     CLEAR     70  59  68 NE13      30.13S
POPLAR BLUFF   CLOUDY    75  67  76 NE7       30.04S
WEST PLAINS    CLEAR     68  66  93 CALM      30.09S

$$


USA.gov is the U.S. government's official web portal to all federal, state and local government web resources and services.